Regional Weather Roundup
Issued by NWS

Home | Current Version | Previous Version | Text Only | Print | Product List | Glossary On
Versions: 1 2 3 4 5 6 7 8 9 10 11 12 13 14 15 16 17 18 19 20 21 22 23 24 25 26 27 28 29 30 31 32 33 34 35 36 37 38 39 40 41 42 43 44 45 46 47 48 49 50
000
ASUS45 KPSR 070210
RWRAZ

ARIZONA REGIONAL HOURLY WEATHER ROUNDUP
NATIONAL WEATHER SERVICE PHOENIX AZ
700 PM MST FRI MAR 06 2015

NOTE: FAIR INDICATES FEW OR NO CLOUDS BELOW 12,000 FEET WITH NO
SIGNIFICANT WEATHER AND/OR OBSTRUCTIONS TO VISIBILITY.

AZZ001>003-036-070300-
NORTHWEST ARIZONA

CITY           SKY/WX    TMP DP  RH WIND       PRES   REMARKS
BULLHEAD CITY  CLEAR     72  25  17 N24       30.05S
KINGMAN        CLEAR     56  27  32 NE10      30.15R
$$

AZZ004>008-015-016-018-070300-
NORTH CENTRAL ARIZONA

CITY           SKY/WX    TMP DP  RH WIND       PRES   REMARKS
GRAND CANYON   CLEAR     40  21  46 NE14      30.30S WCI  32
PRESCOTT       CLEAR     54  12  18 NE8       30.19R
FLAGSTAFF      PTCLDY    41  14  33 NE12      30.26F
PAYSON         PTCLDY    54  16  22 N12       30.20R
PAGE           CLEAR     50  22  33 CALM      30.29F
$$

AZZ009>014-017-070300-
NORTHEAST ARIZONA

CITY           SKY/WX    TMP DP  RH WIND       PRES   REMARKS
WINSLOW        CLEAR     47  20  34 W6        30.23S
SAINT JOHNS    CLEAR     54  12  18 N17       30.18R
WINDOW ROCK    CLEAR     44  16  32 NE7       30.29R
SHOW LOW       CLEAR     45   9  23 N8        30.25S
$$

AZZ023-070300-
GREATER PHOENIX AREA

CITY           SKY/WX    TMP DP  RH WIND       PRES   REMARKS
PHOENIX        CLEAR     76  14   9 SE6       29.97S
BUCKEYE        CLEAR     68  28  22 E6        29.98S
DEER VALLEY    CLEAR     73  16  11 E3        29.99S
SCOTTSDALE     CLEAR     75  13   9 E5        30.01S
MESA-FALCON    CLEAR     70  16  12 E7        30.00R
MESA-GATEWAY   CLEAR     70  19  14 E9        30.02R
CHANDLER       CLEAR     64  27  24 NE12      29.99S
$$

AZZ027-028-070300-
SOUTHWEST MARICOPA COUNTY AND PINAL COUNTY

CITY           SKY/WX    TMP DP  RH WIND       PRES   REMARKS
CASA GRANDE    CLEAR     72  19  14 NE14      29.98F
GILA BEND      CLEAR     72  26  18 NE3       29.97S
$$

AZZ503-504-507>509-070300-
SOUTHEAST ARIZONA

CITY           SKY/WX    TMP DP  RH WIND       PRES   REMARKS
TUCSON         CLEAR     70  26  19 NE10      30.04R
DAVIS-MONTHAN  CLEAR     67  28  22 NE14      30.03R
RYAN FIELD       N/A     70  30  23 E13       30.02R
NOGALES        CLEAR     65  28  24 E18G28    30.06R
SIERRA VISTA   MOCLDY    55  30  38 SE10      30.14R
DOUGLAS        CLEAR     57  28  33 E10       30.14R
SAFFORD        CLEAR     62  14  15 S12       30.12R
$$

AZZ020-021-025-026-031-070300-
SOUTHWEST ARIZONA

CITY           SKY/WX    TMP DP  RH WIND       PRES   REMARKS
YUMA           CLEAR     76  24  14 N5        29.97R
$$

CAZ031-033-041-043-047-048-061-070300-
SOUTHERN CALIFORNIA

CITY           SKY/WX    TMP DP  RH WIND       PRES   REMARKS
DOWNTOWN L.A.  CLEAR     75  33  21 CALM      29.98S
L.A. AIRPORT   CLEAR     70  45  40 CALM      29.98S
SAN DIEGO      CLEAR     74  28  18 N10       29.99R
BURBANK        CLEAR     78  15   9 NE15      30.00S
ONTARIO        CLEAR     75  10   8 NE14G25   29.99F
RIVERSIDE      CLEAR     76   9   7 N8        30.01R
PALM SPRINGS   PTCLDY    78  12   8 W3        30.04S
EL CENTRO NAS  PTCLDY    72  27  18 N7        29.97F
IMPERIAL       PTCLDY    75  28  17 N5        29.97S
BLYTHE         CLEAR     74  21  13 N12       29.99S
NEEDLES        CLEAR     71  19  14 N8        30.05R
$$

NVZ020-UTZ003-070300-
SOUTHERN NEVADA-UTAH

CITY           SKY/WX    TMP DP  RH WIND       PRES   REMARKS
LAS VEGAS      CLEAR     67  13  12 SE5       30.12F
SALT LAKE CITY PTCLDY    46  31  55 N8        30.37S
$$

NMZ009-TXZ055-070300-
NEW MEXICO-WEST TEXAS

CITY           SKY/WX    TMP DP  RH WIND       PRES   REMARKS
ALBUQUERQUE    CLEAR     53   9  17 S5        30.27R
EL PASO        PTCLDY    56  14  19 E8        30.22R
$$


........................KEY........................
SKY/WX - SKY CONDITION/WEATHER
TMP    - TEMPERATURE IN FAHRENHEIT
DP     - DEW POINT IN FAHRENHEIT
RH     - RELATIVE HUMIDITY IN PERCENT
WIND   - DIRECTION AND SPEED IN MILES PER HOUR (MPH)
VRB    - VARIABLE WIND DIRECTION
PRES   - MEAN SEA LEVEL PRESSURE IN INCHES OF MERCURY
         F - FALLING PRESSURE   R - RISING PRESSURE
         S - STEADY PRESSURE
VSB    - VISIBILITY IN MILES
HX     - HEAT INDEX IN FAHRENHEIT
WCI    - WIND CHILL INDEX IN FAHRENHEIT
TC     - TEMPERATURE IN CELSIUS WHICH IS ALSO KNOWN AS
         TEMPERATURE IN CENTIGRADE
AFB    - AIR FORCE BASE
         LUKE AFB IS LUKE AIR FORCE BASE
         DAVIS-MONTHAN IS DAVIS-MONTHAN AIR FORCE BASE
NAS    - NAVAL AIR STATION
         EL CENTRO NAS IS EL CENTRO NAVAL AIR STATION
N/A    - NOT AVAILABLE



USA.gov is the U.S. government's official web portal to all federal, state and local government web resources and services.